Back to catalog

FENGYUN 1C DEB

AliveSSO
NORAD 31293·DEBRIS·🇨🇳 China

Launched May 10, 1999 from Taiyuan Satellite Launch Center

Loading…

Next Passes (next 24 hours)

TLE

AgingSource: Space-Track

Epoch: Sep 10, 2026, 06:40 UTC

1 31293U 99025BPB 26253.27805352  .00000065  00000-0  37762-4 0  9993
2 31293  98.4243 257.7412 0126723 161.3983 199.1895 14.30917137691273

Track FENGYUN 1C DEB in real time with AllMySat

Download on the App Store